Regional Weather Roundup
Issued by NWS

Home | Current Version | Previous Version | Text Only | Print | Product List | Glossary On
Versions: 1 2 3 4 5 6 7 8 9 10 11 12 13 14 15 16 17 18 19 20 21 22 23 24 25 26 27 28 29 30 31 32 33 34 35 36 37 38 39 40 41 42 43 44 45 46 47 48 49 50
000
ASUS43 KFSD 240610
RWRSD

WEATHER ROUNDUP FOR SOUTH DAKOTA
NATIONAL WEATHER SERVICE SIOUX FALLS SD
100 AM CDT TUE OCT 24 2017

NOTE: "FAIR" INDICATES FEW OR NO CLOUDS BELOW 12,000 FEET WITH NO
SIGNIFICANT WEATHER AND/OR OBSTRUCTIONS TO VISIBILITY.


SDZ001>005-009-010-012>017-240700-
NORTHWEST AND NORTH CENTRAL SOUTH DAKOTA

CITY           SKY/WX    TMP DP  RH WIND       PRES   REMARKS
BUFFALO          N/A     43  24  47 NW25      30.35F
FAITH            N/A     38  26  62 NW12      30.39R
MOBRIDGE       CLEAR     44  31  60 NW15      30.28R
$$

SDZ012>016-024>037-041>051-057-063-072>074-240700-
SOUTHWEST AND SOUTH CENTRAL SOUTH DAKOTA

CITY           SKY/WX    TMP DP  RH WIND       PRES   REMARKS
RAPID CTY ARPT CLEAR     45  22  40 NW23      30.44R
PIERRE         CLEAR     45  30  55 NW20      30.30R
CUSTER         CLEAR     37  17  44 N12G21    30.44S
ELLSWORTH AFB  CLEAR     45  22  40 NW18      30.43R
PHILIP         CLEAR     42  27  55 NW12      30.38S
PINE RIDGE     CLEAR     37  22  54 NW8       30.44S
SPEARFISH      FAIR      43  21  42 W13       30.49S
WINNER         FAIR      46  28  49 NW17      30.28R
$$

SDZ004>011-016>023-039-040-240700-
NORTHEAST SOUTH DAKOTA

CITY           SKY/WX    TMP DP  RH WIND       PRES   REMARKS
ABERDEEN       CLEAR     41  31  67 N20G25    30.20R
WATERTOWN      PTCLDY    40  33  76 NW22G31   30.08R
BROOKINGS      CLEAR     40  32  73 NW18      30.06S
SISSETON         N/A     37  29  72 N20G28    30.12R
$$

SDZ017-020-022-023-036>040-048>070-240700-
SOUTHEAST SOUTH DAKOTA

CITY           SKY/WX    TMP DP  RH WIND       PRES   REMARKS
SIOUX FALLS    CLEAR     44  34  67 NW17G28   30.07R
HURON          CLEAR     43  33  68 NW21G30   30.17S
CHAMBERLAIN    CLEAR     48  33  55 NW18G26   30.25R
MITCHELL       CLEAR     45  33  63 NW21G29   30.18S
YANKTON        PTCLDY    47  29  49 NW26G40   30.14R
$$

ABBREVIATIONS USED IN REMARKS
   TC - TEMPERATURE IN CELSIUS
  WCI - WIND CHILL INDEX
   HX - HEAT INDEX
  VSB - VISIBILITY





USA.gov is the U.S. government's official web portal to all federal, state and local government web resources and services.